Location: Be?i?
(36.9044°N, 30.1006°E)
Time: 11:07:20
(UTC+00:00)

Spot 2 Rocket - Pass Details

Date: 05 August 2024
Orbit: 753 x 769 km, 98.4° (Epoch: 08 September)

Event Time Altitude Azimuth Distance (km) Brightness Sun altitude
Exits shadow 19:38:24 67° 220° (SW) 832 3.5 -26.2°
Maximum altitude 19:38:51 71° 258° (WSW) 810 3.6 -26.2°
Drops below altitude 10° 19:43:55 10° 343° (NNW) 2,304 6.8 -26.9°
Sets 19:46:14 0° 345° (NNW) 3,231 7.8 -27.2°
